Location: Sternwarte-Kraichtal
(49.1689°N, 8.6996°E)
Time: 19:12:25
(UTC+02:00)

Vanguard 2 Rocket - Pass Details

Date: 27 May 2022
Orbit: 553 x 3323 km, 32.9° (Epoch: 02 July)

Event Time Altitude Azimuth Distance (km) Brightness Sun altitude
Rises 13:01:20 0° 210° (SSW) 7,202 11.8 61.9°
Reaches altitude 10° 13:07:17 10° 201° (SSW) 6,269 11.7 62.0°
Maximum altitude 13:22:20 28° 152° (SSE) 4,636 11.4 62.2°
Drops below altitude 10° 13:34:47 10° 102° (ESE) 5,192 10.9 62.1°
Sets 13:39:02 0° 92° (E) 5,825 11.0 62.0°
